KE4U-1 Weather Reports


Display with metric or nautical units.
time (UTC)temp
F
wind
direction
speed
MPH
gust
MPH
rain 1hr
in
rain 24hr
in
rain mn
in
humidity
%
barometer
mb
20220524083816 66 0 0.0 1.0 0.04 1.60 1.60 97 1007.5
20220524082616 65 0 0.0 3.0 0.03 1.59 1.59 97 1007.6
20220524081417 65 0 0.0 0.0 0.00 1.56 1.56 97 1007.7
20220524073816 65 0 0.0 0.0 0.00 1.56 1.56 97 1007.9
20220524072615 65 0 0.0 1.0 0.00 1.56 1.56 97 1008.0
20220524070218 65 0 0.0 0.0 0.00 1.56 1.56 97 1008.2
20220524063817 65 0 0.0 0.0 0.00 1.56 1.56 97 1008.4
20220524062618 65 0 0.0 0.0 0.00 1.56 1.56 97 1008.2
20220524053329 66 0 0.0 1.0 0.15 1.56 1.56 97 1008.2
20220524052128 66 0 0.0 0.0 0.20 1.56 1.56 97 1008.4
20220524050929 66 0 0.0 2.0 0.24 1.56 1.56 97 1008.4
20220524045730 66 0 0.0 0.0 0.28 1.54 1.54 97 1008.5
20220524043329 66 0 0.0 0.0 0.39 1.41 1.41 97 1009.1
20220524042129 66 0 0.0 0.0 0.51 1.36 1.36 97 1009.4
20220524040931 66 0 0.0 1.0 0.52 1.32 1.32 97 1009.6
20220524033329 66 0 0.0 7.0 0.35 1.02 1.02 96 1010.3
20220524032129 66 0 0.0 4.0 0.22 0.85 0.85 96 1009.9
20220524030931 66 0 0.0 3.0 0.21 0.80 0.80 96 1009.5
20220524025729 66 0 0.0 1.0 0.19 0.75 0.75 96 1009.8
20220524023330 66 0 0.0 5.0 0.12 0.67 0.67 96 1009.8
20220524022129 67 0 0.0 9.0 0.08 0.63 0.63 96 1009.7
20220524020929 67 0 0.0 5.0 0.04 0.59 0.59 96 1009.9
20220524015730 67 0 0.0 1.0 0.01 0.56 0.56 96 1009.7
20220524013328 67 0 0.0 1.0 0.00 0.55 0.55 96 1009.4
20220524012134 67 0 0.0 2.0 0.00 0.55 0.55 96 1009.5
20220524010928 67 0 0.0 0.0 0.00 0.55 0.55 96 1009.6
20220524005730 67 0 0.0 1.0 0.00 0.55 0.55 96 1009.3
20220524003331 68 0 0.0 2.0 0.00 0.55 0.55 96 1009.1
20220524002128 68 0 0.0 1.0 0.00 0.55 0.55 96 1008.9
20220524000929 68 0 0.0 3.0 0.00 0.55 0.55 96 1008.9
20220523235729 69 0 0.0 2.0 0.00 0.55 0.55 96 1009.0
20220523233330 69 0 0.0 0.0 0.00 0.55 0.55 96 1009.0
20220523232129 69 0 0.0 0.0 0.00 0.55 0.55 96 1008.9
20220523230929 70 0 0.0 1.0 0.00 0.55 0.55 96 1009.0
20220523225730 70 0 0.0 0.0 0.00 0.55 0.55 96 1009.0
20220523223331 70 0 0.0 0.0 0.00 0.55 0.55 96 1008.9
20220523222129 70 0 0.0 0.0 0.00 0.55 0.55 96 1008.8
20220523220449 70 0 0.0 0.0 0.01 0.55 0.55 96 1008.9
20220523214620 70 0 0.0 1.0 0.04 0.55 0.55 96 1008.9
20220523213419 69 0 0.0 0.0 0.08 0.55 0.55 95 1009.0
20220523211851 68 0 0.0 0.0 0.55 0.55 0.55 95 1009.5
20220523210653 68 0 0.0 1.0 0.54 0.54 0.54 94 1009.5
20220523205453 68 0 0.0 1.0 0.52 0.52 0.52 93 1009.8
20220523204254 69 0 0.0 9.0 0.50 0.50 0.50 90 1009.9
20220523203051 72 0 0.0 15.0 0.44 0.44 0.44 83 1010.0
20220523201851 78 0 0.0 2.0 0.00 0.00 0.00 77 1008.4
20220523200657 80 0 0.0 2.0 0.00 0.00 0.00 78 1007.4
20220523195452 80 0 0.0 0.0 0.00 0.00 0.00 75 1007.9
20220523194251 80 0 0.0 2.0 0.00 0.00 0.00 75 1008.2
20220523193051 81 0 0.0 1.0 0.00 0.00 0.00 76 1008.4
20220523191850 82 0 0.0 0.0 0.00 0.00 0.00 73 1008.7
20220523190651 83 0 0.0 0.0 0.00 0.00 0.00 72 1009.0
20220523185450 83 0 0.0 1.0 0.00 0.00 0.00 70 1009.4
20220523184251 84 0 0.0 5.0 0.00 0.00 0.00 70 1009.6
20220523183051 83 0 0.0 2.0 0.00 0.00 0.00 71 1009.7
20220523181852 82 0 0.0 2.0 0.00 0.00 0.00 76 1010.0
20220523180651 81 0 0.0 0.0 0.00 0.00 0.00 78 1010.3
20220523175451 81 0 0.0 0.0 0.00 0.00 0.00 75 1010.5
20220523173748 82 0 0.0 1.0 0.00 0.00 0.00 73 1010.6
20220523172550 83 0 0.0 0.0 0.00 0.00 0.00 73 1010.6
20220523171349 82 0 0.0 1.0 0.00 0.00 0.00 76 1011.0
20220523170149 82 0 0.0 0.0 0.00 0.00 0.00 74 1011.1
20220523164950 82 0 0.0 0.0 0.00 0.00 0.00 76 1011.1
20220523163748 81 0 0.0 1.0 0.00 0.00 0.00 71 1011.1
20220523162549 82 0 0.0 2.0 0.00 0.00 0.00 74 1011.2
20220523161350 81 0 0.0 1.0 0.00 0.00 0.00 74 1011.3
20220523160149 81 0 0.0 1.0 0.00 0.00 0.00 77 1011.2
20220523154949 80 0 0.0 2.0 0.00 0.00 0.00 77 1011.2
20220523153749 80 0 0.0 2.0 0.00 0.00 0.00 77 1011.3
20220523152550 79 0 0.0 0.0 0.00 0.00 0.00 78 1011.4
20220523151348 79 0 0.0 2.0 0.00 0.00 0.00 82 1011.3
20220523150149 78 0 0.0 2.0 0.00 0.00 0.00 80 1011.1
20220523144948 78 0 0.0 0.0 0.00 0.00 0.00 82 1011.0
20220523143750 77 0 0.0 0.0 0.00 0.00 0.00 82 1011.4
20220523142549 77 0 0.0 5.0 0.00 0.00 0.00 84 1011.3
20220523140149 75 0 0.0 4.0 0.00 0.00 0.00 88 1011.3
20220523134948 74 233 1.0 4.0 0.00 0.00 0.00 89 1011.3
20220523133750 73 0 0.0 0.0 0.00 0.00 0.00 90 1011.3
20220523132549 73 0 0.0 3.0 0.00 0.00 0.00 92 1011.2
20220523130149 71 0 0.0 3.0 0.00 0.00 0.00 95 1011.2
20220523124948 70 0 0.0 1.0 0.00 0.00 0.00 96 1011.1
20220523123748 70 0 0.0 0.0 0.00 0.00 0.00 96 1011.1
20220523122548 69 0 0.0 0.0 0.00 0.00 0.00 97 1011.1
20220523114949 68 0 0.0 0.0 0.00 0.00 0.00 96 1011.1
20220523112549 67 0 0.0 0.0 0.00 0.00 0.00 96 1011.1
20220523105655 66 0 0.0 0.0 0.00 0.00 0.00 96 1010.6
20220523104458 66 0 0.0 0.0 0.00 0.00 0.00 96 1010.5
20220523100336 66 0 0.0 0.0 0.00 0.00 0.00 96 1009.7
20220523095134 67 0 0.0 0.0 0.00 0.00 0.00 96 1009.9
20220523093936 67 0 0.0 0.0 0.00 0.00 0.00 96 1009.8
20220523092740 67 0 0.0 0.0 0.00 0.00 0.00 96 1009.4
20220523091534 67 0 0.0 0.0 0.00 0.00 0.00 96 1009.7
20220523090341 68 0 0.0 0.0 0.00 0.00 0.00 96 1009.7